| time (UTC) | temp C | wind direction | speed KPH | gust KPH | rain 1hr cm | rain 24hr cm | rain mn cm | humidity % | barometer mb |
| 20260505153338 | 22 | 274 | 4.8 | 12.9 | 0.00 | 0.00 | 0.00 | 51 | 1011.7 |
| 20260505153225 | 22 | 274 | 4.8 | 12.9 | 0.00 | 0.00 | 0.00 | 51 | 1011.7 |
| 20260505152337 | 22 | 74 | 0.0 | 6.4 | 0.00 | 0.00 | 0.00 | 50 | 1011.6 |
| 20260505152225 | 22 | 74 | 0.0 | 6.4 | 0.00 | 0.00 | 0.00 | 50 | 1011.6 |
| 20260505151255 | 22 | 99 | 4.8 | 8.0 | 0.00 | 0.00 | 0.00 | 51 | 1011.6 |
| 20260505151225 | 22 | 99 | 4.8 | 8.0 | 0.00 | 0.00 | 0.00 | 51 | 1011.6 |
| 20260505150224 | 22 | 335 | 1.6 | 4.8 | 0.00 | 0.00 | 0.00 | 53 | 1011.6 |
| 20260505140227 | 20 | 292 | 3.2 | 1.6 | 0.00 | 0.00 | 0.00 | 61 | 1012.0 |
| 20260505110224 | 10 | 25 | 0.0 | 0.0 | 0.00 | 0.00 | 0.00 | 87 | 1010.5 |
| 20260505030150 | 18 | 335 | 0.0 | 0.0 | 0.00 | 0.00 | 0.00 | 59 | 1010.2 |
| 20260505025150 | 18 | 335 | 0.0 | 0.0 | 0.00 | 0.00 | 0.00 | 58 | 1010.2 |
| 20260505024150 | 18 | 335 | 0.0 | 0.0 | 0.00 | 0.00 | 0.00 | 58 | 1010.2 |
| 20260505023150 | 18 | 335 | 0.0 | 0.0 | 0.00 | 0.00 | 0.00 | 57 | 1010.4 |
| 20260505022150 | 19 | 335 | 0.0 | 1.6 | 0.00 | 0.00 | 0.00 | 57 | 1010.4 |
| 20260505021150 | 19 | 335 | 0.0 | 1.6 | 0.00 | 0.00 | 0.00 | 56 | 1010.3 |
| 20260505020149 | 19 | 335 | 0.0 | 1.6 | 0.00 | 0.00 | 0.00 | 55 | 1010.2 |
| 20260505015149 | 20 | 316 | 1.6 | 3.2 | 0.00 | 0.00 | 0.00 | 55 | 1010.1 |
| 20260505014149 | 20 | 311 | 0.0 | 1.6 | 0.00 | 0.00 | 0.00 | 54 | 1010.1 |
| 20260505013149 | 20 | 298 | 0.0 | 3.2 | 0.00 | 0.00 | 0.00 | 53 | 1010.0 |
| 20260505012149 | 20 | 290 | 0.0 | 3.2 | 0.00 | 0.00 | 0.00 | 52 | 1009.9 |
| 20260505011149 | 21 | 321 | 1.6 | 3.2 | 0.00 | 0.00 | 0.00 | 51 | 1009.8 |
| 20260505010149 | 21 | 286 | 1.6 | 3.2 | 0.00 | 0.00 | 0.00 | 49 | 1009.8 |
| 20260505005148 | 21 | 294 | 0.0 | 3.2 | 0.00 | 0.00 | 0.00 | 48 | 1009.6 |
| 20260505002646 | 22 | 290 | 0.0 | 1.6 | 0.00 | 0.00 | 0.00 | 45 | 1009.5 |
| 20260505001646 | 22 | 290 | 0.0 | 1.6 | 0.00 | 0.00 | 0.00 | 44 | 1009.5 |
| 20260505000646 | 23 | 286 | 1.6 | 1.6 | 0.00 | 0.00 | 0.00 | 44 | 1009.5 |
| 20260504235646 | 23 | 296 | 0.0 | 11.3 | 0.00 | 0.00 | 0.00 | 43 | 1009.4 |
| 20260504234646 | 23 | 275 | 1.6 | 6.4 | 0.00 | 0.00 | 0.00 | 43 | 1009.3 |
| 20260504233645 | 23 | 22 | 1.6 | 3.2 | 0.00 | 0.00 | 0.00 | 42 | 1009.3 |
| 20260504232645 | 23 | 309 | 1.6 | 4.8 | 0.00 | 0.00 | 0.00 | 42 | 1009.2 |
| 20260504231645 | 24 | 130 | 1.6 | 4.8 | 0.00 | 0.00 | 0.00 | 44 | 1009.1 |
| 20260504230645 | 23 | 277 | 3.2 | 3.2 | 0.00 | 0.00 | 0.00 | 45 | 1009.1 |
| 20260504225644 | 23 | 341 | 0.0 | 4.8 | 0.00 | 0.00 | 0.00 | 44 | 1009.1 |
| 20260504224644 | 23 | 249 | 0.0 | 8.0 | 0.00 | 0.00 | 0.00 | 44 | 1009.3 |
| 20260504223644 | 23 | 238 | 1.6 | 4.8 | 0.00 | 0.00 | 0.00 | 44 | 1009.3 |
| 20260504222644 | 24 | 271 | 1.6 | 8.0 | 0.00 | 0.00 | 0.00 | 43 | 1009.3 |
| 20260504221643 | 24 | 298 | 1.6 | 6.4 | 0.00 | 0.00 | 0.00 | 42 | 1009.3 |
| 20260504220643 | 24 | 252 | 3.2 | 8.0 | 0.00 | 0.00 | 0.00 | 43 | 1009.4 |
| 20260504213643 | 25 | 302 | 1.6 | 12.9 | 0.00 | 0.00 | 0.00 | 40 | 1009.3 |
| 20260504212642 | 25 | 57 | 0.0 | 16.1 | 0.00 | 0.00 | 0.00 | 41 | 1009.4 |
| 20260504211642 | 25 | 313 | 1.6 | 11.3 | 0.00 | 0.00 | 0.00 | 41 | 1009.4 |
| 20260504210642 | 25 | 121 | 1.6 | 12.9 | 0.00 | 0.00 | 0.00 | 39 | 1009.5 |
| 20260504205647 | 25 | 284 | 6.4 | 3.2 | 0.00 | 0.00 | 0.00 | 41 | 1009.6 |
| 20260504204646 | 25 | 30 | 3.2 | 12.9 | 0.00 | 0.00 | 0.00 | 42 | 1009.6 |
| 20260504203646 | 25 | 318 | 4.8 | 16.1 | 0.00 | 0.00 | 0.00 | 40 | 1009.8 |
| 20260504202646 | 25 | 301 | 0.0 | 20.9 | 0.00 | 0.00 | 0.00 | 40 | 1009.9 |
| 20260504201646 | 24 | 302 | 6.4 | 11.3 | 0.00 | 0.00 | 0.00 | 46 | 1010.0 |
| 20260504200646 | 25 | 107 | 0.0 | 14.5 | 0.00 | 0.00 | 0.00 | 45 | 1010.2 |
| 20260504195645 | 24 | 286 | 3.2 | 12.9 | 0.00 | 0.00 | 0.00 | 44 | 1010.3 |
| 20260504194645 | 25 | 86 | 0.0 | 14.5 | 0.00 | 0.00 | 0.00 | 43 | 1010.5 |
| 20260504193754 | 24 | 271 | 1.6 | 11.3 | 0.00 | 0.00 | 0.00 | 48 | 1010.6 |
| 20260504193645 | 24 | 271 | 1.6 | 11.3 | 0.00 | 0.00 | 0.00 | 48 | 1010.6 |
| 20260504192645 | 24 | 78 | 0.0 | 14.5 | 0.00 | 0.00 | 0.00 | 46 | 1010.8 |
| 20260504191644 | 24 | 294 | 4.8 | 6.4 | 0.00 | 0.00 | 0.00 | 48 | 1010.9 |
| 20260504191232 | 23 | 82 | 3.2 | 12.9 | 0.00 | 0.00 | 0.00 | 46 | 1011.1 |
| 20260504190643 | 23 | 82 | 3.2 | 12.9 | 0.00 | 0.00 | 0.00 | 46 | 1011.1 |
| 20260504185643 | 23 | 118 | 1.6 | 9.7 | 0.00 | 0.00 | 0.00 | 49 | 1011.3 |
| 20260504184643 | 24 | 237 | 3.2 | 14.5 | 0.00 | 0.00 | 0.00 | 46 | 1011.4 |
| 20260504183643 | 23 | 63 | 3.2 | 14.5 | 0.00 | 0.00 | 0.00 | 48 | 1011.5 |
| 20260504182646 | 23 | 292 | 4.8 | 9.7 | 0.00 | 0.00 | 0.00 | 47 | 1011.8 |
| 20260504181646 | 23 | 306 | 1.6 | 4.8 | 0.00 | 0.00 | 0.00 | 50 | 1011.9 |
| 20260504180647 | 23 | 254 | 4.8 | 6.4 | 0.00 | 0.00 | 0.00 | 48 | 1012.0 |
| 20260504175646 | 23 | 272 | 1.6 | 12.9 | 0.00 | 0.00 | 0.00 | 46 | 1012.1 |
| 20260504174829 | 23 | 257 | 3.2 | 12.9 | 0.00 | 0.00 | 0.00 | 48 | 1012.3 |
| 20260504174646 | 23 | 257 | 3.2 | 12.9 | 0.00 | 0.00 | 0.00 | 48 | 1012.3 |
| 20260504173646 | 23 | 42 | 1.6 | 8.0 | 0.00 | 0.00 | 0.00 | 46 | 1012.3 |
| 20260504172645 | 23 | 88 | 1.6 | 14.5 | 0.00 | 0.00 | 0.00 | 49 | 1012.4 |
| 20260504171645 | 22 | 19 | 1.6 | 16.1 | 0.00 | 0.00 | 0.00 | 47 | 1012.5 |
| 20260504170645 | 22 | 89 | 0.0 | 6.4 | 0.00 | 0.00 | 0.00 | 45 | 1012.7 |